Starlink 35723

operational
NORAD ID: 66212 Int'l Des: 2025-244 Owner: SPXS Country: US Constellation: starlink
NOTLE

关于 Starlink 35723

正在加载描述...

实时位置

正在加载3D地球...

即将过境

高度历史

Altitude vs Time

uPlot chart will show altitude changes over time

两行轨道根数

1 66212C 25244F 25301.73729167 .02532300 00000+0 37140-2 0 3015
2 66212 53.1573 134.0959 0010774 274.4444 321.2365 16.01776595 12
Epoch: Oct 28, 2025 • Age: 73 hours

当前状态

高度 229.0 km
速度 7.77 km/s
星下点 -11.86°S, 53.48°E
发射日期 Oct 28, 2025
运行时间 3 days
类型 internet

技术详情

分类 Payload
质量 575.00 kg
干质量 530.00 kg
总质量 575.00 kg
长度 0.30 m
直径 4.10 m
跨度 29.00 m
形状 Box + pan
制造商 SPXS
平台类型 Starlink V2MO
阶段状态 In Orbit
所有者/国家 SPXS/US

大型星座

Loading constellations...